Flag for U.S.A. Weather past 2 weeks in Olympia, Washington, U.S.A.

Now
61 °F

Overcast.


Feels Like: 61 °F
Forecast: 57 / 64 °F
Wind: 10 mph from South

Location: Olympia Airport

Current Time: Aug 31, 2015 at 4:35:20 AM

Latest Report: Aug 31, 2015 at 3:54 AM


Visibility: 10 mi

Pressure: 29.97 "Hg

Humidity: 67%

Dew point: 50 °F

Location of OlympiaLocation

Historic Weather in Olympia — Graph

°F

Olympia temperature yesterday

Maximum temperature yesterday: 66 °F (at 1:54 PM)
Minimum temperature yesterday: 54 °F (at 6:54 AM)
Average temperature yesterday: 60 °F

Past Weeks' High & Low Weather Summary

 TemperatureHumidityPressure
High91 °F (Aug 19, 3:54 PM)97% (Aug 17, 4:54 AM)30.27 "Hg (Aug 17, 4:54 AM)
Low42 °F (Aug 25, 4:54 AM)21% (Aug 27, 3:54 PM)29.54 "Hg (Aug 29, 6:54 AM)
Average65 °F65%29.98 "Hg
* Reported Aug 16 2:54 AM — Aug 31 2:54 AM, Olympia, Weather by CustomWeather, © 2015

Note: Actual official high and low records may vary slightly from our data, if they occured in-between our weather recording intervals... More about our weather records

Advertising

Olympia weather history for previous 24 hours

 ConditionsComfort  
Time TempWeatherWind HumidityBarometerVisibility
2:54 AM
Mon, Aug 31
60 °FOvercast.13 mph72%29.98 "Hg10 mi
1:54 AM61 °FOvercast.13 mph70%29.99 "Hg10 mi
12:54 AM60 °FOvercast.8 mph72%30.00 "Hg10 mi
11:54 PM
Sun, Aug 30
60 °FPassing clouds.7 mph69%30.01 "Hg10 mi
10:54 PM61 °FMostly cloudy.7 mph70%30.01 "Hg10 mi
9:54 PM62 °FOvercast.9 mph67%30.02 "Hg10 mi
8:54 PM61 °FScattered clouds.7 mph72%30.02 "Hg10 mi
7:54 PM62 °FPartly sunny.5 mph70%30.00 "Hg10 mi
6:54 PM64 °FScattered clouds.7 mph63%29.99 "Hg10 mi
5:54 PM65 °FOvercast.13 mph61%29.98 "Hg10 mi
4:54 PM65 °FMore clouds than sun.10 mph59%29.98 "Hg10 mi
3:54 PM66 °FMostly cloudy.12 mph65%29.98 "Hg10 mi
2:54 PM65 °FMostly cloudy.9 mph70%29.97 "Hg10 mi
1:54 PM66 °FMostly cloudy.6 mph73%29.96 "Hg10 mi
12:54 PM61 °FLight rain. Mostly cloudy.No wind87%29.96 "Hg8 mi
11:54 AM60 °FLight rain. Cloudy.8 mph86%29.95 "Hg7 mi
10:54 AM61 °FLight rain. More clouds than sun.10 mph78%29.93 "Hg6 mi
9:54 AM62 °FBroken clouds.14 mph75%29.90 "Hg10 mi
8:54 AM59 °FBroken clouds.12 mph90%29.88 "Hg10 mi
7:54 AM56 °FBroken clouds.5 mph93%29.87 "Hg10 mi
6:54 AM54 °FPassing clouds.5 mph93%29.83 "Hg10 mi
5:54 AM56 °FRain. Fog.8 mph90%29.81 "Hg4 mi
4:54 AM56 °FRain. Fog.7 mph93%29.80 "Hg4 mi
Weather by CustomWeather, © 2015

See weather overviewHow to use our weather pages